FW9028 Weather Reports


time (UTC)temp
C
wind
direction
speed
KPH
gust
KPH
rain 1hr
cm
rain 24hr
cm
rain mn
cm
humidity
%
barometer
mb
20260504150541 28 102 17.7 24.1 0.00 0.00 0.00 74 1012.1
20260504141041 28 120 9.7 22.5 0.00 0.00 0.00 78 1011.8
20260504140540 28 150 19.3 20.9 0.00 0.00 0.00 78 1011.7
20260504130541 29 105 8.0 22.5 0.00 0.00 0.00 69 1011.4
20260504110541 30 128 6.4 25.7 0.00 0.00 0.00 69 1010.8
20260504100541 31 143 3.2 19.3 0.00 0.00 0.00 62 1009.8
20260504081541 33 82 14.5 25.7 0.00 0.00 0.00 58 1009.0
20260504081041 33 107 17.7 25.7 0.00 0.00 0.00 59 1008.9
20260504080541 33 125 8.0 29.0 0.00 0.00 0.00 59 1009.0
20260504045541 33 169 3.2 20.9 0.00 0.00 0.00 57 1011.1
20260504045041 32 89 1.6 22.5 0.00 0.00 0.00 60 1011.1
20260504044041 32 172 4.8 17.7 0.00 0.00 0.00 59 1011.5
20260504043041 32 68 9.7 24.1 0.00 0.00 0.00 59 1011.7
20260504042541 32 133 9.7 22.5 0.00 0.00 0.00 58 1011.7
20260504042041 32 135 9.7 22.5 0.00 0.00 0.00 57 1011.7
20260504041541 32 194 8.0 20.9 0.00 0.00 0.00 60 1011.8
20260504041042 32 152 6.4 19.3 0.00 0.00 0.00 60 1012.1
20260504040541 32 150 8.0 19.3 0.00 0.00 0.00 59 1011.9
20260504040041 33 134 8.0 20.9 0.00 0.00 0.00 59 1012.2
20260504035541 32 109 4.8 20.9 0.00 0.00 0.00 60 1012.2
20260504034541 32 143 4.8 19.3 0.00 0.00 0.00 61 1012.5
20260504034041 32 124 11.3 19.3 0.00 0.00 0.00 60 1012.5
20260504033541 32 133 6.4 17.7 0.00 0.00 0.00 61 1012.4
20260504033041 32 117 11.3 17.7 0.00 0.00 0.00 62 1012.6
20260504032541 32 151 9.7 17.7 0.00 0.00 0.00 62 1012.7
20260504032041 32 200 1.6 17.7 0.00 0.00 0.00 64 1012.8
20260504031541 32 211 4.8 20.9 0.00 0.00 0.00 63 1012.6
20260504031041 32 42 3.2 20.9 0.00 0.00 0.00 64 1012.7
20260504030541 32 92 12.9 22.5 0.00 0.00 0.00 63 1012.7
20260504030042 31 79 11.3 22.5 0.00 0.00 0.00 63 1012.8
20260504025541 32 94 6.4 20.9 0.00 0.00 0.00 63 1012.9
20260504025041 32 151 6.4 22.5 0.00 0.00 0.00 64 1012.9
20260504024541 31 93 8.0 22.5 0.00 0.00 0.00 64 1012.8
20260504024041 31 107 6.4 19.3 0.00 0.00 0.00 64 1013.1
20260504023541 31 92 8.0 19.3 0.00 0.00 0.00 64 1012.8
20260504023042 31 142 12.9 19.3 0.00 0.00 0.00 65 1013.0
20260504022541 31 92 6.4 19.3 0.00 0.00 0.00 66 1013.1
20260504022042 31 161 14.5 17.7 0.00 0.00 0.00 64 1013.0
20260504021541 31 152 6.4 22.5 0.00 0.00 0.00 67 1013.1
20260504021041 30 102 9.7 22.5 0.00 0.00 0.00 67 1013.2
20260504020541 30 137 6.4 19.3 0.00 0.00 0.00 67 1013.2
20260504020041 30 102 6.4 19.3 0.00 0.00 0.00 69 1013.4
20260504015042 30 107 9.7 19.3 0.00 0.00 0.00 68 1013.7
20260504014541 30 106 6.4 20.9 0.00 0.00 0.00 70 1013.5
20260504013541 30 110 14.5 19.3 0.00 0.00 0.00 70 1013.3
20260504013042 30 122 4.8 16.1 0.00 0.00 0.00 70 1013.6
20260504012541 29 93 8.0 17.7 0.00 0.00 0.00 71 1013.6
20260504011540 29 139 6.4 19.3 0.00 0.00 0.00 71 1013.6
20260504011041 29 142 8.0 22.5 0.00 0.00 0.00 71 1013.4
20260504010540 29 107 11.3 22.5 0.00 0.00 0.00 70 1013.3
20260504010041 29 157 9.7 19.3 0.00 0.00 0.00 71 1013.4
20260504005541 29 116 8.0 19.3 0.00 0.00 0.00 72 1013.5
20260504005041 29 122 6.4 20.9 0.00 0.00 0.00 72 1013.5
20260504004542 28 41 4.8 20.9 0.00 0.00 0.00 73 1013.5
20260504003541 28 130 6.4 14.5 0.00 0.00 0.00 75 1013.5
20260504003041 28 99 8.0 16.1 0.00 0.00 0.00 75 1013.4
20260504002541 28 85 8.0 22.5 0.00 0.00 0.00 76 1013.5
20260504001541 28 118 9.7 20.9 0.00 0.00 0.00 75 1013.2
20260504000541 28 108 11.3 24.1 0.00 0.00 0.00 75 1013.0
20260504000041 28 106 12.9 24.1 0.00 0.00 0.00 75 1013.0
20260503235541 28 111 14.5 20.9 0.00 0.00 0.00 74 1013.1
20260503235042 28 146 6.4 25.7 0.00 0.00 0.00 75 1012.9
20260503234541 28 98 3.2 27.4 0.00 0.00 0.00 76 1012.7
20260503234041 28 92 11.3 27.4 0.00 0.00 0.00 75 1012.9
20260503233541 28 102 12.9 24.1 0.00 0.00 0.00 75 1012.6
20260503233041 28 110 6.4 24.1 0.00 0.00 0.00 74 1012.7
20260503232541 28 108 4.8 24.1 0.00 0.00 0.00 74 1012.4
20260503232041 28 99 14.5 20.9 0.00 0.00 0.00 74 1012.5
20260503231541 28 110 8.0 19.3 0.00 0.00 0.00 73 1012.4
20260503231041 28 113 6.4 19.3 0.00 0.00 0.00 73 1012.1
20260503230541 28 131 9.7 12.9 0.00 0.00 0.00 72 1012.0
20260503230041 28 114 8.0 12.9 0.00 0.00 0.00 73 1012.1
20260503225541 28 139 3.2 8.0 0.00 0.00 0.00 72 1012.1
20260503225040 28 87 6.4 11.3 0.00 0.00 0.00 72 1012.1
20260503224541 27 107 3.2 11.3 0.00 0.00 0.00 72 1012.2
20260503224041 27 105 6.4 9.7 0.00 0.00 0.00 73 1012.0
20260503223541 27 103 8.0 9.7 0.00 0.00 0.00 72 1012.0
20260503223040 27 164 3.2 9.7 0.00 0.00 0.00 73 1011.8
20260503222541 27 118 4.8 8.0 0.00 0.00 0.00 73 1011.8
20260503222041 27 115 8.0 8.0 0.00 0.00 0.00 74 1011.8
20260503221541 27 141 4.8 6.4 0.00 0.00 0.00 75 1011.8
20260503221041 27 150 4.8 8.0 0.00 0.00 0.00 75 1011.6
20260503220541 27 168 3.2 8.0 0.00 0.00 0.00 74 1011.8
20260503220041 27 100 1.6 11.3 0.00 0.00 0.00 74 1011.6
20260503215542 27 88 3.2 11.3 0.00 0.00 0.00 74 1011.7
20260503214541 27 110 6.4 9.7 0.00 0.00 0.00 75 1011.6
20260503214041 27 136 3.2 9.7 0.00 0.00 0.00 75 1011.5
20260503213542 27 131 3.2 8.0 0.00 0.00 0.00 75 1011.8
20260503213041 27 130 3.2 8.0 0.00 0.00 0.00 75 1011.6
20260503212041 27 94 3.2 11.3 0.00 0.00 0.00 74 1011.5
20260503211541 27 122 1.6 9.7 0.00 0.00 0.00 75 1011.8
20260503211041 27 101 6.4 9.7 0.00 0.00 0.00 74 1011.9
20260503210041 27 98 1.6 9.7 0.00 0.00 0.00 75 1011.8
20260503205541 27 95 3.2 11.3 0.00 0.00 0.00 74 1011.6
20260503205041 27 78 8.0 12.9 0.00 0.00 0.00 74 1011.4
20260503204541 27 109 9.7 12.9 0.00 0.00 0.00 74 1011.4
20260503204041 27 108 6.4 14.5 0.00 0.00 0.00 74 1011.5
20260503203041 27 97 4.8 14.5 0.00 0.00 0.00 74 1011.3
20260503202541 27 110 6.4 12.9 0.00 0.00 0.00 74 1011.3
20260503202040 27 115 6.4 12.9 0.00 0.00 0.00 74 1011.3
20260503201542 27 103 3.2 12.9 0.00 0.00 0.00 74 1011.3
20260503201041 27 98 8.0 12.9 0.00 0.00 0.00 74 1011.3
20260503200541 27 115 4.8 16.1 0.00 0.00 0.00 73 1011.4
20260503200041 27 68 4.8 16.1 0.00 0.00 0.00 73 1011.2
20260503195541 27 125 4.8 16.1 0.00 0.00 0.00 72 1011.2
20260503195041 27 74 8.0 17.7 0.00 0.00 0.00 73 1011.2
20260503194540 27 87 8.0 19.3 0.00 0.00 0.00 73 1011.2
20260503194041 27 111 4.8 19.3 0.00 0.00 0.00 73 1011.0
20260503193541 27 81 6.4 19.3 0.00 0.00 0.00 75 1011.0
20260503193041 27 79 11.3 20.9 0.00 0.00 0.00 74 1010.8
20260503192041 27 115 4.8 25.7 0.00 0.00 0.00 75 1010.8
20260503191541 27 114 4.8 24.1 0.00 0.00 0.00 74 1010.8
20260503191041 27 113 11.3 25.7 0.00 0.00 0.00 75 1010.6
20260503190541 27 99 6.4 25.7 0.00 0.00 0.00 74 1010.7
20260503190041 27 118 11.3 22.5 0.00 0.00 0.00 73 1010.9
20260503185541 27 98 9.7 25.7 0.00 0.00 0.00 74 1011.0
20260503185042 27 91 6.4 25.7 0.00 0.00 0.00 73 1010.9
20260503184541 27 104 6.4 19.3 0.00 0.00 0.00 74 1011.1
20260503184041 27 95 6.4 22.5 0.00 0.00 0.00 74 1010.6
20260503183541 27 107 8.0 22.5 0.00 0.00 0.00 74 1010.9
20260503183041 27 121 9.7 20.9 0.00 0.00 0.00 74 1011.0
20260503182541 27 119 8.0 20.9 0.00 0.00 0.00 74 1010.9
20260503182041 27 97 4.8 24.1 0.00 0.00 0.00 74 1010.8
20260503181541 27 106 12.9 24.1 0.00 0.00 0.00 75 1010.9
20260503181040 27 107 6.4 22.5 0.00 0.00 0.00 75 1010.9
20260503180541 27 134 8.0 22.5 0.00 0.00 0.00 75 1011.0
20260503180041 27 85 6.4 20.9 0.00 0.00 0.00 75 1010.8
20260503175041 27 108 12.9 17.7 0.00 0.00 0.00 75 1010.7
20260503174541 27 94 6.4 20.9 0.00 0.00 0.00 75 1011.1
20260503173041 27 118 6.4 22.5 0.00 0.00 0.00 74 1011.0
20260503172041 27 119 9.7 20.9 0.00 0.00 0.00 75 1011.0
20260503171541 27 161 4.8 20.9 0.00 0.00 0.00 74 1011.1
20260503170541 27 100 6.4 22.5 0.00 0.00 0.00 75 1010.9